Погода в Шепетовке

Погода в Шепетовке : погода сейчас, прогноз погоды и архив. Всё, что Вы хотите узнать о погоде в Шепетовке!

Хотите узнать прогноз погоды в Шепетовке? Тогда Вам сюда: Погода в Шепетовке

Поиск расширенной информации на нашем сайте:

Другие новости

Новости СМИ2

Главная страница сайта

Новости сайта

03.07.2017

Напоминаем, что на нашем специализированном сайте Метеоцентр.Азия вы можете получить высокодетализированные автоматические прогнозы погоды по пунктам России, СНГ и мира в авиационном формате (включающие направление и скорость ветра, видимость, явления погоды, количество и форму облачности, нижнюю и верхнюю границу облачности).

Рекомендуем: татарское изготовление кухонь по цене интернет магазина

Погода в Шепетовке - сегодня

Время (UTC), дата Ветер
(°,м/с) 
Видим.   Явления Облачность Т
(°С)
Тd
(°С)
f(%) Тe
(°С)
Pmin
(гПа)
dP
(гПа)
Po
(мм)
O2
(г/м3)
Тmin Tmax R s Состояние
почвы
00 16.02.18 140 (ЮВ) н/о  {снег}  10/10 500 м 
[Sc]
-3.4 -4.5 92 -5  1027.2  -0.3  744  304      0.0     
03 16.02.18 тихо ()   н/о    10/10 480 м 
[Sc]
-2.6 -3.9 91 -3  1026.8  -0.3  744  303           
06 16.02.18 180 (Ю) 2000 м  дымка  10/10 240 м 
[St]
-2.5 -3.1 96 -4  1026.5  -0.3  744  303  -4.2    0.0  16  равномерный
сухой снег
100% 
09 16.02.18 180 (Ю) 4000 м  слаб. ливневой снег  10/10 420 м кучево-дожд. 
[Cb cap]
-0.6 -1.5 94 -1  1025.9  -0.3  743  300           
12 16.02.18 180 (Ю) 10 км  в посл. час снег{ливн. осадки}  10/0 средняя 
[As op]
+0.3 -1.3 89 1025.3  -0.5  743  299      0.2     
15 16.02.18 180 (Ю) 10 км    10/0 средняя 
[Ac As]
-0.1 -1.8 88 -1  1024.9  -0.4  743  300           
18 16.02.18 180 (Ю) н/о    10/0 средняя 
[Ac As]
-1.4 -2.8 90 -2  1025.4  0.3  743  301    +0.3  0.2     
21 16.02.18 тихо ()   н/о    9/0 средняя 
[Ac trans]
-3 -4.3 91 -3  1025.3  -0.3  743  303           
00 17.02.18 тихо ()   н/о    10/0 средняя 
[Ac As]
-1.4 -2.8 90 -1  1025.6  0.5  743  301           
03 17.02.18 тихо ()   н/о    10/0 средняя 
[Ac As]
-1.6 -3 90 -2  1025.9  0.2  743  302           
06 17.02.18 270 (З) 10 км    8/6 300 м средняя 
[Sc|Ac trans]
-3.2 -4.9 88 -4  1025.9  -0.2  743  303  -4      16  равномерный
мокрый или
старый снег
100% 
09 17.02.18 270 (З) 10 км    ясно 
+1.5 -1.6 80 +1  1024.9  0.3  743  298           
12 17.02.18 270 (З) 10 км    8/6 300 м средняя 
[Sc|Ac trans]
+1.1 -1.5 83 1024.2  -0.8  742  298           
15 17.02.18 270 (З) 10 км    ясно 
-1.6 -4 84 -4  1023.8  -0.7  742  301           
18 17.02.18 230 (ЮЗ) н/о    ясно 
-5.4 -6.8 90 -7  1023.9  -0.4  741  305    +3       
21 17.02.18 230 (ЮЗ) н/о    ясно 
-6.1 -7.6 89 -8  1023.5  -0.5  741  306           
00 18.02.18 050 (СВ) 4000 м  слаб. ливневой снег  10/10 300 м кучево-дожд. 
[Cb cap]
-1.8 -2.6 94 -5  1013.4  734  298    -0.2     
03 18.02.18 230 (ЮЗ) н/о    9/9 480 м 
[Sc]
-4.6 -6.2 89 -6  1022.7  -0.6  741  304           
06 18.02.18 230 (ЮЗ) 10 км    8/4 300 м средняя, верхняя 
[Sc|Ac trans|Ci fib]
-6.2 -7.7 89 -8  1023.2  0.3  741  306  -6.2      15  равномерный
мокрый или
старый снег
100% 
09 18.02.18 230 (ЮЗ) 10 км    9/0 средняя 
[Ac As]
-1.8 -4.2 84 -3  1022.6  741  301           
12 18.02.18 270 (З) 4000 м  слаб. ливневой снег  10/10 400 м кучево-дожд. 
[Cb cap]
+0.6 -0.8 90 1022.3  741  298      0.5     
15 18.02.18 270 (З) 4000 м  слаб. ливневой снег  10/10 420 м кучево-дожд. 
[Cb cap]
-0.4 -1.3 94 -1  1023  0.6  741  299           
18 18.02.18 270 (З) н/о  {ливн. осадки}  10/10 480 м 
[Sc]
-2.6 -5.5 80 -5  1025.1  1.7  743  303    +1.5     
21 18.02.18 270 (З) н/о    10/10 500 м 
[Sc]
-3.3 -6.8 77 -4  1025.7  0.5  743  304           
00 19.02.18 270 (З) н/о    10/10 480 м 
[Sc]
-3.7 -6.2 83 -5  1026.3  0.5  743  304           
Время (UTC), дата Ветер
(°,м/с) 
Видим.   Явления Облачность Т
(°С)
Тd
(°С)
f(%) Тe
(°С)
Pmin
(гПа)
dP
(гПа)
Po
(мм)
O2
(г/м3)
Тmin Tmax R s Состояние
почвы

Для получения пояснительной информации подведите курсор к названию столбца.

ПОГОДА в Шепетовке - архив

Всё, что Вы хотите узнать о погоде в Шепетовке - удобно и подробно!

Выберите нужную дату (начиная с 1 января 2015* года) и нажмите кнопку "Найти".
Будут отображены архивные сводки погоды по пункту Шепетовка, начиная с указанной даты.


Отображать данные в формате CSV (для использования в таблицах Excel)


Внимание! Наш архив погоды предназначен исключительно для личного некоммерческого использования в познавательных целях. Если Вам необходимы официальные справки о состоянии погоды (для производственных, юридических, коммерческих и т.п. целей), обращайтесь в органы Росгидромета.

*Примечание: данная дата относится к архиву по метеостанциям СССР (Россия, СНГ, Балтия).
Архив по метеостанциям Зарубежной Европы и Азии (кроме Китая) хранится 10 дней, по другим регионам земного шара (Китай, Африка, Америка, Австралия, Океания) - 1 день.

Шепетовка - район местоположения метеостанции


Название, широта, долгота, высота метеостанции:
Шепетовка 50.2°ш. 27°д. 278 м над ур. моря [Украина]

Дополнительная информация

В oтличие oт бoльшинства пoгoдных сайтoв мы публикуем пoдрoбную метеoинфoрмацию в детальнoм прoфессиoнальнoм фoрмате.

Характеристики температуры и влажнoсти вoздуха измеряются на высoте 2 м в тени вдали oт зданий и деревьев.
Скoрoсть ветра измеряется на высoте 10 м (на урoвне рoста челoвека скoрoсть ветра ниже в 1.5-2 раза). Если метеoстанция нахoдится в гoрoде или в лесу, тo скoрoсть ветра занижена на 2-4 м/с пo сравнению с oткрытым местoм. Скoрoсть ветра над акватoриями крупных рек и oзёр, а также на вершинах хoлмoв на 2-5 м/с выше, чем в oбычных услoвиях.
Атмoсфернoе давление в разных тoчках местнoсти мoжет значительнo oтличаться oт давления на метеoстанции, в зависимoсти oт услoвий рельефа (при пoдъёме на 10 м давление пoнижается примернo на 1 мм рт.ст.).